SCP
0 0 0 0 0 0 0 0 0 0 0 0 0 0 -0 -0 -0 -0 0 0 -0 -0 0 0 0 0 -0 -0 -0 -0 0 -0 -0 -0 0 -0 0 0 0 0 0 0 0 0 0 0 0 0 0 0 0 0 0 0
0 0 0 0 0 0 0 0 0 0 0 0 0 -0 -0 -0 -0 -0 -0 -0 -0 -0 -0 0 0 0 0 0 -0 -0 -0 0 0 0 0 -0 0 -0 -0 0 0 0 0 0 0 0 0 0 0 0 0 0 0 0
0 0 0 0 0 0 0 0 0 0 0 0 0 0 -0 0 -0 -0 -0 -0 -0 -0 -0 0 -0 0 0 0 0 -0 -0 0 0 0 0 -0 -0 -0 -0 0 0 -0 -0 0 0 0 0 0 0 0 0 0 0 0
0 0 0 0 0 0 0 0 0 0 0 0 0 0 0 -0 -0 -0 -0 -0 -0 -0 -0 0 -0 -0 0 0 0 0 0 0 0 0 0 0 0 0 0 0 0 0 0 0 0 -0 0 -0 -0 0 0 0 0 0
0 0 0 0 0 0 0 0 0 0 0 0 0 0 0 0 0 0 0 0 -0 -0 -0 -0 -0 -0 -0 -0 -0 0 0 0 0 0 0 0 0 0 0 0 0 0 0 0 0 0 0 0 0 0 0 0 0 0
0 0 0 0 0 0 0 0 0 0 0 0 0 0 0 0 0 0 0 -0 0 -0 -0 -0 -0 -0 -0 -0 -0 -0 0 0 0 0 0 0 0 0 0 0 0 0 0 0 0 0 0 0 0 0 0 0 0 0
0 0 0 0 0 0 0 0 0 0 0 0 0 0 0 0 0 0 0 0 0 0 -0 -0 -0 -0 0 0 0 0 -0 -0 0 0 0 0 0 0 0 0 0 0 0 0 0 0 0 0 0 0 0 0 0 0
0 0 0 0 0 0 0 0 0 0 0 0 0 0 0 0 0 0 0 0 0 0 0 -0 0 0 0 0 0 0 0 0 0 0 0 0 0 0 0 -0 0 -0 -0 0 0 0 0 0 0 -0 0 0 0 0
0 0 0 0 0 0 0 0 0 0 0 0 0 0 0 0 0 0 0 0 0 0 0 0 0 0 -0 0 -0 -0 0 0 0 0 0 0 0 -0 -0 0 0 -0 0 -0 0 0 -0 -0 0 0 0 0 0 0
0 0 0 0 0 0 0 0 0 0 0 0 0 0 0 0 0 0 0 0 0 0 0 0 0 0 0 0 -0 -0 -0 -0 -0 0 0 0 -0 -0 0 -0 0 -0 -0 -0 0 0 0 -0 0 -0 -0 -0 -0 -0
0 0 0 0 0 0 0 0 0 0 0 0 0 0 0 0 0 0 0 0 0 0 0 0 0 0 0 0 0 0 -0 -0 -0 -0 0 -0 -0 0 0 -0 -0 0 0 0 -0 -0 0 0 0 0 0 0 0 0
0 0 0 0 0 0 -0 -0 0 0 0 0 0 0 0 0 0 0 0 0 0 0 0 0 0 0 0 0 0 0 0 0 -0 0 0 -0 -0 0 -0 -0 0 -0 0 0 0 0 0 0 0 0 0 0 0 0
0 0 0 0 0 0 -0 -0 0 0 0 0 0 0 0 0 0 0 0 0 0 0 0 0 0 0 0 0 0 0 0 0 0 0 0 0 0 0 0 0 0 0 0 0 0 0 0 0 0 0 0 0 0 0
0 0 0 0 0 0 0 0 0 0 0 0 0 0 0 0 0 0 0 0 0 0 0 0 0 0 0 0 0 0 0 0 0 0 0 0 0 0 0 0 0 0 0 0 0 0 0 0 0 0 0 0 0 0
0 0 0 0 0 0 0 0 0 0 0 0 0 0 0 0 0 0 0 0 0 0 0 0 0 0 0 0 0 0 0 0 0 -0 0 0 0 0 0 0 0 0 0 0 0 0 0 0 0 0 0 0 0 0
0 0 0 0 0 0 0 0 0 0 0 0 0 0 0 0 0 0 0 0 0 0 0 0 0 0 0 0 0 0 0 0 0 0 0 0 0 0 0 0 0 0 0 0 0 0 0 0 0 0 0 0 0 0
0 0 0 0 0 0 0 0 0 0 0 0 0 0 0 0 0 0 0 0 0 0 0 0 0 0 0 0 0 0 0 0 0 0 0 0 0 0 0 0 0 0 -0 0 0 0 0 0 0 0 0 0 0 0
0 0 0 0 0 0 0 0 0 0 0 0 0 0 0 0 0 0 0 0 0 0 0 0 0 0 0 0 0 0 0 0 0 0 0 0 0 0 0 0 0 0 0 0 0 0 0 0 0 0 0 0 0 0
0 0 0 0 0 0 0 0 0 0 0 0 0 0 0 0 0 0 0 0 0 0 0 0 0 0 0 0 0 0 0 0 0 0 0 0 0 0 0 0 0 0 0 0 0 0 0 0 0 0 0 0 0 0
0 0 0 0 0 0 0 0 0 0 0 0 0 0 0 0 0 0 0 0 0 0 0 0 0 0 0 0 0 0 0 0 0 0 0 0 0 0 0 0 0 0 0 0 0 0 0 0 0 0 0 0 0 0
0 0 0 0 0 0 0 0 0 0 0 0 0 0 0 0 0 0 0 0 0 0 0 0 0 0 0 0 0 0 0 0 0 0 0 0 0 0 0 0 0 0 0 0 0 0 0 0 0 0 0 0 0 0
0 0 0 0 0 0 0 0 0 0 0 0 0 0 0 0 0 0 0 0 0 0 0 0 0 0 0 0 0 0 0 0 0 0 0 0 0 0 0 0 0 0 0 0 0 0 0 0 0 0 0 0 0 0
0 0 0 0 0 0 0 0 0 0 0 0 0 0 0 0 0 0 0 0 0 0 0 0 0 0 0 0 0 0 0 0 0 0 0 0 0 0 0 0 0 0 0 0 0 0 0 0 0 0 0 0 0 0
0 0 0 0 0 0 0 0 0 0 0 0 0 0 0 0 0 0 0 0 0 0 0 0 0 0 0 0 0 0 0 0 0 0 0 0 0 0 0 0 0 0 0 0 0 0 0 0 0 0 0 0 0 0
0 0 0 0 0 0 0 0 0 0 0 0 0 0 0 0 0 0 0 0 0 0 0 0 0 0 0 0 0 0 0 0 0 0 0 0 0 0 0 0 0 0 0 0 0 0 0 0 0 0 0 0 0 0
0 0 0 0 0 0 0 0 0 0 0 0 0 0 0 0 0 0 0 0 0 0 0 0 0 0 0 0 0 0 0 0 0 0 0 0 0 0 0 0 0 0 0 0 0 0 0 0 0 0 0 0 0 0
0 0 0 0 0 0 0 0 0 0 0 0 0 0 0 0 0 0 0 0 0 0 0 0 0 0 0 0 0 0 0 0 0 0 0 0 0 0 0 0 0 0 0 0 0 0 0 0 0 0 0 0 0 0
0 0 0 0 0 0 0 0 0 0 0 0 0 0 0 0 0 0 0 0 0 0 0 0 0 0 0 0 0 0 0 0 0 0 0 0 0 0 0 0 0 0 0 0 0 0 0 0 0 0 0 0 0 0
0 0 0 0 0 0 0 0 0 0 0 0 0 0 0 0 0 0 0 0 0 0 0 0 0 0 0 0 0 0 0 0 0 0 0 0 0 0 0 0 0 0 0 0 0 0 0 0 0 0 0 0 0 0
0 0 0 0 0 0 0 0 0 0 0 0 0 0 0 0 0 0 0 0 0 0 0 0 0 0 0 0 0 0 0 0 0 0 0 0 0 0 0 0 0 0 0 0 0 0 0 0 0 0 0 0 0 0
0 0 0 0 0 0 0 0 0 0 0 0 0 0 0 0 0 0 0 0 0 0 0 0 0 0 0 0 0 0 0 0 0 0 0 0 0 0 0 0 0 0 0 0 0 0 0 0 0 0 0 0 0 0
0 0 0 0 0 0 0 0 0 0 0 0 0 0 0 0 0 0 0 0 0 0 0 0 0 0 0 0 0 0 0 0 0 0 0 0 0 0 0 0 0 0 0 0 0 0 0 0 0 0 0 0 0 0
0 0 0 0 0 0 0 0 0 0 0 0 0 0 0 0 0 0 0 0 0 0 0 0 0 0 0 0 0 0 0 0 0 0 0 0 0 0 0 0 0 0 0 0 0 0 0 0 0 0 0 0 0 0
Wind_Speed_500mb
104 102 94 88 81 78 76 72 68 62 59 54 47 42 37 32 33 30 24 21 23 8 11 13 10 10 5 5 5 13 6 4 3 4 3 1 3 5 4 1 6 14 14 8 5 9 17 22 11 13 3 2 7 11
111 109 101 93 86 79 78 74 68 64 58 53 48 42 37 36 35 29 21 23 22 12 10 16 12 13 15 10 1 12 3 6 4 3 2 2 3 3 3 3 3 7 6 5 14 8 4 34 8 18 11 11 13 10
118 112 106 99 92 83 78 75 70 65 60 54 48 42 38 38 36 33 22 23 20 9 5 10 9 11 13 13 15 5 7 10 8 7 6 2 5 4 5 8 4 8 8 5 3 13 27 24 31 37 21 18 20 14
123 112 111 104 95 88 81 75 71 68 62 55 48 42 38 38 35 30 26 26 22 6 5 7 13 9 12 10 11 8 7 10 13 10 6 4 4 6 3 4 6 2 15 8 10 23 21 36 43 30 29 29 18 12
125 116 115 107 99 92 83 76 73 71 64 57 50 44 40 36 32 25 20 29 22 8 6 3 7 9 7 6 7 6 9 7 5 5 5 3 4 5 5 4 11 24 15 14 11 11 10 4 9 34 35 25 20 20
124 115 120 111 103 97 88 79 73 72 66 59 52 46 40 34 31 25 11 27 27 19 4 4 6 4 4 2 6 8 9 7 3 1 0 1 3 2 5 7 19 38 36 38 11 8 18 12 11 22 30 21 19 24
125 114 121 116 107 102 92 83 76 73 68 61 54 47 41 38 36 21 9 11 33 21 6 7 4 5 11 9 4 4 3 3 2 3 1 2 4 5 6 9 8 16 32 38 38 22 15 16 6 21 30 26 30 36
121 111 121 118 113 103 96 87 79 75 69 62 54 48 41 37 32 19 11 15 25 13 7 5 2 4 15 7 4 5 2 2 4 1 2 4 4 8 11 33 24 14 16 30 40 34 21 15 21 23 31 34 42 46
117 115 122 115 115 104 100 91 85 79 71 63 55 46 39 27 18 21 19 17 22 9 4 7 6 3 17 6 4 3 2 4 4 4 3 3 6 12 18 21 28 31 22 11 35 45 39 29 21 30 38 41 43 47
116 105 123 115 115 103 107 97 90 83 74 65 59 27 16 23 17 24 14 9 12 13 12 5 13 6 10 9 6 5 0 1 4 3 3 7 9 47 53 48 27 9 22 32 19 40 47 45 32 36 41 43 47 47
117 104 123 118 116 105 112 104 99 89 79 65 28 15 26 40 22 14 8 6 5 5 12 12 12 12 14 6 6 4 2 1 4 3 4 5 8 10 10 6 16 45 45 15 33 24 28 36 36 28 33 41 46 48
127 106 124 122 121 111 113 114 110 108 76 47 34 42 40 13 8 6 4 1 6 6 13 15 12 11 14 10 7 5 3 3 5 5 4 7 8 16 18 17 12 12 27 58 28 29 18 27 38 33 31 30 39 44
120 110 130 124 127 112 118 120 114 99 83 59 25 17 14 9 7 14 15 7 5 20 25 19 11 11 11 8 10 4 7 4 3 4 7 9 15 16 22 14 11 16 16 41 37 27 19 17 31 34 32 30 29 33
119 109 130 127 134 118 123 121 118 101 93 21 19 10 13 10 12 10 10 10 16 19 49 36 17 7 8 6 5 6 3 2 3 6 12 5 14 15 13 16 14 7 11 30 31 27 15 14 23 32 23 27 27 24
122 121 127 123 138 130 127 122 114 102 41 17 17 14 15 12 10 17 21 23 18 50 64 27 16 7 5 7 4 8 4 8 11 9 5 8 10 8 7 9 12 7 20 25 24 28 16 14 17 20 18 15 13 16
133 107 133 126 144 135 133 121 110 67 40 22 15 9 8 15 8 18 29 21 41 65 36 10 9 7 5 8 9 15 9 13 7 7 13 6 2 3 6 6 9 14 29 30 24 24 22 18 15 14 14 13 11 11
135 79 137 126 148 141 144 114 72 28 24 19 12 23 27 26 30 32 38 37 66 56 6 9 11 6 11 3 8 10 11 5 7 8 5 10 8 9 19 31 31 34 40 29 26 24 23 19 15 10 5 0 6 11
122 106 135 122 155 154 117 51 40 25 14 12 14 39 34 33 46 35 34 56 53 29 20 8 21 8 10 9 7 8 29 24 14 6 13 22 20 28 37 41 44 43 39 34 27 21 17 12 8 3 3 8 12 17
115 116 137 132 169 107 31 33 29 16 6 21 25 59 32 36 46 47 51 74 39 39 18 18 6 7 7 16 14 8 9 9 9 11 21 29 30 34 37 38 35 31 28 23 17 11 6 4 7 11 15 20 23 24
100 118 151 153 157 37 17 14 31 17 14 23 38 38 27 23 42 47 55 78 49 23 10 8 9 14 14 12 10 10 10 11 13 19 32 37 37 36 35 31 27 23 18 10 4 4 10 15 19 23 23 23 23 25
102 147 161 161 98 30 16 21 16 18 29 14 47 38 20 39 31 29 36 63 22 14 11 20 28 22 17 16 11 3 5 8 16 21 42 47 43 36 33 29 24 17 8 5 11 17 20 22 22 22 24 25 26 28
75 159 133 102 28 12 13 16 33 33 16 31 42 22 19 13 18 27 39 23 17 20 26 34 48 45 39 35 25 16 11 9 12 23 37 47 50 46 39 33 25 12 3 15 22 24 22 22 25 27 26 26 27 25
136 115 96 26 15 11 18 39 14 11 11 19 26 11 6 11 17 35 14 15 20 28 48 51 52 52 52 50 43 28 19 17 25 32 36 43 40 38 39 29 16 5 19 24 26 27 27 29 28 27 26 25 22 18
96 49 19 19 14 11 25 9 14 19 15 9 10 10 7 11 24 11 7 14 22 33 58 67 61 49 40 41 46 42 27 19 28 27 35 44 51 44 31 18 10 22 21 27 29 28 28 28 27 25 22 18 14 12
18 18 20 11 16 15 12 12 8 8 8 7 8 7 9 15 6 7 7 15 40 59 60 55 64 64 58 52 43 38 36 29 30 42 47 48 42 33 24 23 25 25 32 31 25 24 27 27 23 17 13 10 10 11
9 13 11 11 10 12 13 13 13 13 11 8 5 14 13 7 7 12 9 35 59 61 63 63 65 66 63 59 52 47 43 44 46 54 51 45 43 42 43 34 34 38 33 25 26 26 23 18 14 11 10 9 9 9
10 8 10 14 32 36 17 19 17 12 10 12 11 11 8 11 13 7 23 43 48 48 48 49 53 55 57 55 47 39 38 43 44 47 48 43 45 42 39 41 37 32 26 25 21 16 13 12 11 9 8 8 6 3
4 20 31 24 21 20 14 10 10 12 10 24 27 14 25 19 14 16 17 25 30 32 33 33 35 37 38 41 43 44 42 42 43 44 43 43 44 42 37 29 27 26 22 18 15 14 12 10 9 9 7 5 5 8
7 36 48 31 12 12 7 8 7 10 32 45 10 8 10 11 20 20 22 27 30 31 32 31 32 32 33 36 41 44 43 44 46 47 46 43 36 27 24 21 19 18 16 15 14 12 12 11 10 10 12 13 15 15
10 13 10 10 10 7 6 8 19 35 33 33 26 22 18 16 21 26 27 31 33 34 34 34 33 35 36 39 42 44 45 46 44 36 34 33 29 24 24 22 20 19 17 15 13 14 16 16 18 20 19 19 18 14
18 7 17 18 10 9 21 44 49 45 30 22 27 20 20 17 19 23 27 32 35 37 37 38 39 38 37 36 32 32 35 37 36 33 30 28 27 27 27 25 24 22 21 20 21 21 23 25 24 22 20 15 12 8
15 9 11 10 7 26 28 13 11 13 12 9 10 13 15 11 8 21 29 34 38 39 39 39 37 37 38 37 35 33 31 30 32 30 28 29 30 31 31 30 29 28 28 28 29 30 28 24 22 18 13 8 5 8
10 23 28 20 12 9 12 13 11 11 16 9 9 7 6 11 10 18 31 37 39 38 39 41 41 38 36 36 35 34 36 36 35 36 36 35 34 35 34 33 34 35 34 34 33 31 26 20 16 11 6 5 9 14
Wind_Direction_500mb
203 196 195 200 203 203 200 198 196 196 199 201 205 208 215 214 201 194 215 217 219 244 203 204 172 152 195 220 198 166 155 179 164 223 255 103 239 187 278 4 186 183 178 181 156 219 255 150 127 209 68 20 315 303
202 195 194 197 202 202 198 198 196 196 197 199 200 203 205 196 191 201 217 206 213 234 192 207 199 194 195 183 201 173 155 140 167 126 182 134 200 189 345 239 186 225 233 206 213 215 122 191 243 216 255 291 313 291
203 195 192 196 201 198 199 198 196 195 193 194 196 196 196 198 201 200 214 196 195 222 144 180 211 198 197 191 187 224 196 177 171 163 152 92 237 165 222 230 246 233 205 250 305 224 230 235 237 241 252 279 286 287
203 194 191 196 199 196 197 198 193 191 189 189 190 188 186 192 193 199 209 201 194 176 157 204 222 216 214 209 195 195 193 175 154 151 166 202 250 202 263 331 248 319 161 188 262 281 275 268 242 241 245 256 265 241
202 192 191 197 198 194 194 195 191 188 186 186 185 183 182 184 186 193 198 199 203 203 153 147 200 233 233 223 220 202 169 192 185 170 186 205 173 218 198 269 240 189 191 187 215 233 218 277 278 230 225 230 233 214
199 190 191 195 199 192 190 192 190 187 183 182 181 181 180 177 180 173 196 219 219 210 211 147 192 174 208 223 222 209 208 227 238 232 124 162 230 255 271 254 251 214 223 219 235 246 221 257 262 221 209 217 209 196
196 190 191 196 201 189 187 190 190 186 182 180 180 179 179 180 180 183 214 212 195 189 219 109 168 201 198 198 249 296 253 277 255 303 320 264 209 237 245 251 243 238 240 231 228 237 236 226 263 204 199 196 186 179
196 192 191 194 197 189 185 188 189 185 181 180 179 179 181 185 189 205 179 159 174 188 212 127 90 181 177 184 198 243 332 303 321 274 271 243 242 228 254 239 246 247 245 228 221 219 222 232 225 204 198 192 183 183
194 193 194 189 191 188 182 184 187 184 181 179 177 174 169 179 190 203 186 176 187 215 223 171 179 158 167 164 166 118 152 243 277 251 237 259 213 231 233 259 261 246 224 241 214 216 221 228 229 208 200 197 194 190
194 193 194 187 188 189 179 182 183 182 178 171 164 152 166 173 170 162 167 199 213 212 218 175 133 126 162 169 164 163 162 296 252 105 290 230 258 262 260 256 257 292 234 225 208 216 219 219 222 211 207 208 207 207
194 195 192 186 189 191 183 182 180 178 171 159 163 159 152 150 142 175 180 188 206 248 203 169 164 137 171 167 157 186 145 60 270 96 272 252 268 248 282 315 255 240 236 232 235 250 243 233 220 218 215 217 217 217
198 195 191 185 188 190 189 182 179 175 166 164 153 130 132 169 158 155 171 202 219 223 177 150 153 135 145 145 131 160 165 165 259 346 266 257 250 273 278 281 274 263 237 225 234 223 230 220 217 223 225 226 223 224
201 196 191 185 186 188 189 183 179 169 159 146 145 149 156 168 178 195 186 213 232 179 172 153 128 142 127 134 92 151 179 210 335 237 246 243 267 276 286 294 280 317 264 203 202 205 208 211 207 212 217 219 218 223
197 195 188 186 183 187 186 182 176 167 158 157 152 144 207 176 227 184 189 176 177 164 152 142 116 129 126 107 130 153 62 286 227 244 236 236 272 289 286 247 253 278 171 175 190 189 200 208 200 200 210 216 221 228
196 196 186 187 184 184 182 181 173 167 159 158 176 207 193 174 159 176 166 141 140 155 149 122 98 125 111 109 60 118 129 236 226 236 240 264 296 292 270 241 216 208 181 183 172 176 163 148 160 182 198 199 207 227
192 193 186 184 181 181 177 174 167 171 176 174 206 125 126 136 140 164 167 150 155 155 146 136 125 143 142 132 157 211 178 227 243 222 259 301 353 322 278 228 204 183 161 141 139 148 150 135 133 136 149 173 201 236
184 180 186 181 175 175 171 164 168 182 182 191 190 187 162 170 173 176 175 171 162 159 173 144 162 161 116 181 232 195 211 234 250 241 229 155 137 100 116 119 113 117 138 144 137 135 137 135 129 125 130 255 309 306
181 184 185 174 167 166 163 169 171 190 188 156 157 172 169 171 166 158 170 170 162 186 158 185 136 170 193 194 232 221 234 244 249 254 180 162 144 130 127 122 119 118 121 125 128 125 120 120 124 123 346 322 315 314
182 179 180 169 166 156 152 175 182 159 118 153 163 167 163 168 181 186 174 175 179 178 162 159 156 189 216 219 239 266 272 266 232 221 183 168 154 145 141 137 133 130 128 126 127 135 153 218 268 281 289 296 298 300
179 174 174 176 168 161 134 130 182 127 154 164 159 154 147 156 167 170 172 179 178 166 186 197 212 209 213 234 229 239 278 297 219 192 181 177 169 159 153 149 146 144 142 140 160 248 268 273 277 282 290 295 297 297
167 170 177 173 169 168 128 141 130 129 131 131 156 143 121 144 146 165 168 180 179 203 210 205 216 223 207 196 172 42 328 285 232 219 198 180 174 171 167 163 160 155 157 252 286 288 285 287 292 301 305 304 304 301
167 162 159 164 162 116 105 143 132 122 115 145 149 138 134 162 173 186 171 184 214 209 195 204 218 216 221 216 227 282 297 251 204 207 199 193 186 181 175 169 165 164 174 323 309 298 295 301 308 309 307 306 304 300
157 158 159 150 118 98 126 130 100 114 117 157 142 112 150 169 171 170 205 215 215 202 213 221 228 228 224 232 244 258 279 269 224 202 200 201 200 186 178 176 179 216 319 318 300 290 293 299 302 302 303 302 297 290
159 158 150 134 114 110 144 108 114 110 96 166 148 121 158 137 158 206 249 204 203 215 222 226 228 228 227 227 231 233 228 211 205 209 201 192 182 177 180 187 253 286 284 296 293 293 295 295 294 294 294 289 284 285
157 167 127 104 127 124 115 128 118 104 114 140 112 121 155 152 171 222 218 206 208 222 226 227 227 228 230 228 223 221 210 201 223 200 184 181 188 190 204 263 273 258 287 288 290 289 287 285 283 278 269 266 277 287
147 167 141 135 152 122 151 133 156 140 121 124 111 119 145 135 164 239 206 204 219 224 224 223 223 223 224 228 230 225 219 214 209 203 200 202 222 235 262 264 254 266 279 283 283 280 275 266 256 251 256 266 272 281
139 154 126 122 135 118 92 75 113 101 120 145 152 158 154 165 215 234 194 206 210 211 214 216 219 222 226 225 226 225 219 214 214 216 217 220 239 248 240 242 258 274 277 272 267 259 247 241 242 242 243 246 253 279
107 164 143 164 136 127 116 116 133 160 152 152 132 171 172 185 201 195 195 198 200 199 203 206 210 213 215 214 214 212 207 206 209 212 213 213 216 222 231 243 255 259 254 244 230 219 217 215 214 214 206 182 136 124
244 162 142 128 82 63 83 139 142 127 146 162 123 153 163 164 175 165 169 172 176 180 185 187 188 189 191 194 197 198 200 201 202 202 205 207 207 213 226 234 229 218 207 200 197 189 185 183 176 164 143 127 120 113
3 42 94 69 82 94 42 107 122 132 137 139 127 127 133 150 157 165 164 167 170 171 172 173 177 179 182 187 192 190 194 198 202 207 215 215 214 212 207 201 188 179 173 167 163 163 162 157 144 132 127 120 111 99
343 18 73 48 74 48 113 116 117 119 119 114 126 133 127 141 158 163 165 168 167 168 172 175 175 174 176 178 185 192 192 195 199 200 202 202 197 191 184 173 165 159 154 151 151 148 144 136 129 124 117 107 96 72
0 52 116 103 101 137 115 106 88 74 69 83 76 113 125 120 129 165 175 172 172 175 173 171 172 172 170 171 173 179 183 187 184 183 186 183 176 170 165 161 157 153 149 147 142 136 130 127 124 120 113 96 47 359
78 83 92 105 122 187 168 121 73 86 49 60 57 111 115 131 157 177 182 177 173 173 174 172 168 169 170 171 171 170 166 164 163 160 159 160 162 160 156 154 151 147 144 140 134 131 131 131 125 113 87 23 353 344
Wind_Speed_850mb
104 102 94 88 81 78 76 72 68 62 59 54 47 42 37 32 33 30 24 21 23 8 11 13 10 10 5 5 5 13 6 4 3 4 3 1 3 5 4 1 6 14 14 8 5 9 17 22 11 13 3 2 7 11
111 109 101 93 86 79 78 74 68 64 58 53 48 42 37 36 35 29 21 23 22 12 10 16 12 13 15 10 1 12 3 6 4 3 2 2 3 3 3 3 3 7 6 5 14 8 4 34 8 18 11 11 13 10
118 112 106 99 92 83 78 75 70 65 60 54 48 42 38 38 36 33 22 23 20 9 5 10 9 11 13 13 15 5 7 10 8 7 6 2 5 4 5 8 4 8 8 5 3 13 27 24 31 37 21 18 20 14
123 112 111 104 95 88 81 75 71 68 62 55 48 42 38 38 35 30 26 26 22 6 5 7 13 9 12 10 11 8 7 10 13 10 6 4 4 6 3 4 6 2 15 8 10 23 21 36 43 30 29 29 18 12
125 116 115 107 99 92 83 76 73 71 64 57 50 44 40 36 32 25 20 29 22 8 6 3 7 9 7 6 7 6 9 7 5 5 5 3 4 5 5 4 11 24 15 14 11 11 10 4 9 34 35 25 20 20
124 115 120 111 103 97 88 79 73 72 66 59 52 46 40 34 31 25 11 27 27 19 4 4 6 4 4 2 6 8 9 7 3 1 0 1 3 2 5 7 19 38 36 38 11 8 18 12 11 22 30 21 19 24
125 114 121 116 107 102 92 83 76 73 68 61 54 47 41 38 36 21 9 11 33 21 6 7 4 5 11 9 4 4 3 3 2 3 1 2 4 5 6 9 8 16 32 38 38 22 15 16 6 21 30 26 30 36
121 111 121 118 113 103 96 87 79 75 69 62 54 48 41 37 32 19 11 15 25 13 7 5 2 4 15 7 4 5 2 2 4 1 2 4 4 8 11 33 24 14 16 30 40 34 21 15 21 23 31 34 42 46
117 115 122 115 115 104 100 91 85 79 71 63 55 46 39 27 18 21 19 17 22 9 4 7 6 3 17 6 4 3 2 4 4 4 3 3 6 12 18 21 28 31 22 11 35 45 39 29 21 30 38 41 43 47
116 105 123 115 115 103 107 97 90 83 74 65 59 27 16 23 17 24 14 9 12 13 12 5 13 6 10 9 6 5 0 1 4 3 3 7 9 47 53 48 27 9 22 32 19 40 47 45 32 36 41 43 47 47
117 104 123 118 116 105 112 104 99 89 79 65 28 15 26 40 22 14 8 6 5 5 12 12 12 12 14 6 6 4 2 1 4 3 4 5 8 10 10 6 16 45 45 15 33 24 28 36 36 28 33 41 46 48
127 106 124 122 121 111 113 114 110 108 76 47 34 42 40 13 8 6 4 1 6 6 13 15 12 11 14 10 7 5 3 3 5 5 4 7 8 16 18 17 12 12 27 58 28 29 18 27 38 33 31 30 39 44
120 110 130 124 127 112 118 120 114 99 83 59 25 17 14 9 7 14 15 7 5 20 25 19 11 11 11 8 10 4 7 4 3 4 7 9 15 16 22 14 11 16 16 41 37 27 19 17 31 34 32 30 29 33
119 109 130 127 134 118 123 121 118 101 93 21 19 10 13 10 12 10 10 10 16 19 49 36 17 7 8 6 5 6 3 2 3 6 12 5 14 15 13 16 14 7 11 30 31 27 15 14 23 32 23 27 27 24
122 121 127 123 138 130 127 122 114 102 41 17 17 14 15 12 10 17 21 23 18 50 64 27 16 7 5 7 4 8 4 8 11 9 5 8 10 8 7 9 12 7 20 25 24 28 16 14 17 20 18 15 13 16
133 107 133 126 144 135 133 121 110 67 40 22 15 9 8 15 8 18 29 21 41 65 36 10 9 7 5 8 9 15 9 13 7 7 13 6 2 3 6 6 9 14 29 30 24 24 22 18 15 14 14 13 11 11
135 79 137 126 148 141 144 114 72 28 24 19 12 23 27 26 30 32 38 37 66 56 6 9 11 6 11 3 8 10 11 5 7 8 5 10 8 9 19 31 31 34 40 29 26 24 23 19 15 10 5 0 6 11
122 106 135 122 155 154 117 51 40 25 14 12 14 39 34 33 46 35 34 56 53 29 20 8 21 8 10 9 7 8 29 24 14 6 13 22 20 28 37 41 44 43 39 34 27 21 17 12 8 3 3 8 12 17
115 116 137 132 169 107 31 33 29 16 6 21 25 59 32 36 46 47 51 74 39 39 18 18 6 7 7 16 14 8 9 9 9 11 21 29 30 34 37 38 35 31 28 23 17 11 6 4 7 11 15 20 23 24
100 118 151 153 157 37 17 14 31 17 14 23 38 38 27 23 42 47 55 78 49 23 10 8 9 14 14 12 10 10 10 11 13 19 32 37 37 36 35 31 27 23 18 10 4 4 10 15 19 23 23 23 23 25
102 147 161 161 98 30 16 21 16 18 29 14 47 38 20 39 31 29 36 63 22 14 11 20 28 22 17 16 11 3 5 8 16 21 42 47 43 36 33 29 24 17 8 5 11 17 20 22 22 22 24 25 26 28
75 159 133 102 28 12 13 16 33 33 16 31 42 22 19 13 18 27 39 23 17 20 26 34 48 45 39 35 25 16 11 9 12 23 37 47 50 46 39 33 25 12 3 15 22 24 22 22 25 27 26 26 27 25
136 115 96 26 15 11 18 39 14 11 11 19 26 11 6 11 17 35 14 15 20 28 48 51 52 52 52 50 43 28 19 17 25 32 36 43 40 38 39 29 16 5 19 24 26 27 27 29 28 27 26 25 22 18
96 49 19 19 14 11 25 9 14 19 15 9 10 10 7 11 24 11 7 14 22 33 58 67 61 49 40 41 46 42 27 19 28 27 35 44 51 44 31 18 10 22 21 27 29 28 28 28 27 25 22 18 14 12
18 18 20 11 16 15 12 12 8 8 8 7 8 7 9 15 6 7 7 15 40 59 60 55 64 64 58 52 43 38 36 29 30 42 47 48 42 33 24 23 25 25 32 31 25 24 27 27 23 17 13 10 10 11
9 13 11 11 10 12 13 13 13 13 11 8 5 14 13 7 7 12 9 35 59 61 63 63 65 66 63 59 52 47 43 44 46 54 51 45 43 42 43 34 34 38 33 25 26 26 23 18 14 11 10 9 9 9
10 8 10 14 32 36 17 19 17 12 10 12 11 11 8 11 13 7 23 43 48 48 48 49 53 55 57 55 47 39 38 43 44 47 48 43 45 42 39 41 37 32 26 25 21 16 13 12 11 9 8 8 6 3
4 20 31 24 21 20 14 10 10 12 10 24 27 14 25 19 14 16 17 25 30 32 33 33 35 37 38 41 43 44 42 42 43 44 43 43 44 42 37 29 27 26 22 18 15 14 12 10 9 9 7 5 5 8
7 36 48 31 12 12 7 8 7 10 32 45 10 8 10 11 20 20 22 27 30 31 32 31 32 32 33 36 41 44 43 44 46 47 46 43 36 27 24 21 19 18 16 15 14 12 12 11 10 10 12 13 15 15
10 13 10 10 10 7 6 8 19 35 33 33 26 22 18 16 21 26 27 31 33 34 34 34 33 35 36 39 42 44 45 46 44 36 34 33 29 24 24 22 20 19 17 15 13 14 16 16 18 20 19 19 18 14
18 7 17 18 10 9 21 44 49 45 30 22 27 20 20 17 19 23 27 32 35 37 37 38 39 38 37 36 32 32 35 37 36 33 30 28 27 27 27 25 24 22 21 20 21 21 23 25 24 22 20 15 12 8
15 9 11 10 7 26 28 13 11 13 12 9 10 13 15 11 8 21 29 34 38 39 39 39 37 37 38 37 35 33 31 30 32 30 28 29 30 31 31 30 29 28 28 28 29 30 28 24 22 18 13 8 5 8
10 23 28 20 12 9 12 13 11 11 16 9 9 7 6 11 10 18 31 37 39 38 39 41 41 38 36 36 35 34 36 36 35 36 36 35 34 35 34 33 34 35 34 34 33 31 26 20 16 11 6 5 9 14
Wind_Direction_850mb
203 196 195 200 203 203 200 198 196 196 199 201 205 208 215 214 201 194 215 217 219 244 203 204 172 152 195 220 198 166 155 179 164 223 255 103 239 187 278 4 186 183 178 181 156 219 255 150 127 209 68 20 315 303
202 195 194 197 202 202 198 198 196 196 197 199 200 203 205 196 191 201 217 206 213 234 192 207 199 194 195 183 201 173 155 140 167 126 182 134 200 189 345 239 186 225 233 206 213 215 122 191 243 216 255 291 313 291
203 195 192 196 201 198 199 198 196 195 193 194 196 196 196 198 201 200 214 196 195 222 144 180 211 198 197 191 187 224 196 177 171 163 152 92 237 165 222 230 246 233 205 250 305 224 230 235 237 241 252 279 286 287
203 194 191 196 199 196 197 198 193 191 189 189 190 188 186 192 193 199 209 201 194 176 157 204 222 216 214 209 195 195 193 175 154 151 166 202 250 202 263 331 248 319 161 188 262 281 275 268 242 241 245 256 265 241
202 192 191 197 198 194 194 195 191 188 186 186 185 183 182 184 186 193 198 199 203 203 153 147 200 233 233 223 220 202 169 192 185 170 186 205 173 218 198 269 240 189 191 187 215 233 218 277 278 230 225 230 233 214
199 190 191 195 199 192 190 192 190 187 183 182 181 181 180 177 180 173 196 219 219 210 211 147 192 174 208 223 222 209 208 227 238 232 124 162 230 255 271 254 251 214 223 219 235 246 221 257 262 221 209 217 209 196
196 190 191 196 201 189 187 190 190 186 182 180 180 179 179 180 180 183 214 212 195 189 219 109 168 201 198 198 249 296 253 277 255 303 320 264 209 237 245 251 243 238 240 231 228 237 236 226 263 204 199 196 186 179
196 192 191 194 197 189 185 188 189 185 181 180 179 179 181 185 189 205 179 159 174 188 212 127 90 181 177 184 198 243 332 303 321 274 271 243 242 228 254 239 246 247 245 228 221 219 222 232 225 204 198 192 183 183
194 193 194 189 191 188 182 184 187 184 181 179 177 174 169 179 190 203 186 176 187 215 223 171 179 158 167 164 166 118 152 243 277 251 237 259 213 231 233 259 261 246 224 241 214 216 221 228 229 208 200 197 194 190
194 193 194 187 188 189 179 182 183 182 178 171 164 152 166 173 170 162 167 199 213 212 218 175 133 126 162 169 164 163 162 296 252 105 290 230 258 262 260 256 257 292 234 225 208 216 219 219 222 211 207 208 207 207
194 195 192 186 189 191 183 182 180 178 171 159 163 159 152 150 142 175 180 188 206 248 203 169 164 137 171 167 157 186 145 60 270 96 272 252 268 248 282 315 255 240 236 232 235 250 243 233 220 218 215 217 217 217
198 195 191 185 188 190 189 182 179 175 166 164 153 130 132 169 158 155 171 202 219 223 177 150 153 135 145 145 131 160 165 165 259 346 266 257 250 273 278 281 274 263 237 225 234 223 230 220 217 223 225 226 223 224
201 196 191 185 186 188 189 183 179 169 159 146 145 149 156 168 178 195 186 213 232 179 172 153 128 142 127 134 92 151 179 210 335 237 246 243 267 276 286 294 280 317 264 203 202 205 208 211 207 212 217 219 218 223
197 195 188 186 183 187 186 182 176 167 158 157 152 144 207 176 227 184 189 176 177 164 152 142 116 129 126 107 130 153 62 286 227 244 236 236 272 289 286 247 253 278 171 175 190 189 200 208 200 200 210 216 221 228
196 196 186 187 184 184 182 181 173 167 159 158 176 207 193 174 159 176 166 141 140 155 149 122 98 125 111 109 60 118 129 236 226 236 240 264 296 292 270 241 216 208 181 183 172 176 163 148 160 182 198 199 207 227
192 193 186 184 181 181 177 174 167 171 176 174 206 125 126 136 140 164 167 150 155 155 146 136 125 143 142 132 157 211 178 227 243 222 259 301 353 322 278 228 204 183 161 141 139 148 150 135 133 136 149 173 201 236
184 180 186 181 175 175 171 164 168 182 182 191 190 187 162 170 173 176 175 171 162 159 173 144 162 161 116 181 232 195 211 234 250 241 229 155 137 100 116 119 113 117 138 144 137 135 137 135 129 125 130 255 309 306
181 184 185 174 167 166 163 169 171 190 188 156 157 172 169 171 166 158 170 170 162 186 158 185 136 170 193 194 232 221 234 244 249 254 180 162 144 130 127 122 119 118 121 125 128 125 120 120 124 123 346 322 315 314
182 179 180 169 166 156 152 175 182 159 118 153 163 167 163 168 181 186 174 175 179 178 162 159 156 189 216 219 239 266 272 266 232 221 183 168 154 145 141 137 133 130 128 126 127 135 153 218 268 281 289 296 298 300
179 174 174 176 168 161 134 130 182 127 154 164 159 154 147 156 167 170 172 179 178 166 186 197 212 209 213 234 229 239 278 297 219 192 181 177 169 159 153 149 146 144 142 140 160 248 268 273 277 282 290 295 297 297
167 170 177 173 169 168 128 141 130 129 131 131 156 143 121 144 146 165 168 180 179 203 210 205 216 223 207 196 172 42 328 285 232 219 198 180 174 171 167 163 160 155 157 252 286 288 285 287 292 301 305 304 304 301
167 162 159 164 162 116 105 143 132 122 115 145 149 138 134 162 173 186 171 184 214 209 195 204 218 216 221 216 227 282 297 251 204 207 199 193 186 181 175 169 165 164 174 323 309 298 295 301 308 309 307 306 304 300
157 158 159 150 118 98 126 130 100 114 117 157 142 112 150 169 171 170 205 215 215 202 213 221 228 228 224 232 244 258 279 269 224 202 200 201 200 186 178 176 179 216 319 318 300 290 293 299 302 302 303 302 297 290
159 158 150 134 114 110 144 108 114 110 96 166 148 121 158 137 158 206 249 204 203 215 222 226 228 228 227 227 231 233 228 211 205 209 201 192 182 177 180 187 253 286 284 296 293 293 295 295 294 294 294 289 284 285
157 167 127 104 127 124 115 128 118 104 114 140 112 121 155 152 171 222 218 206 208 222 226 227 227 228 230 228 223 221 210 201 223 200 184 181 188 190 204 263 273 258 287 288 290 289 287 285 283 278 269 266 277 287
147 167 141 135 152 122 151 133 156 140 121 124 111 119 145 135 164 239 206 204 219 224 224 223 223 223 224 228 230 225 219 214 209 203 200 202 222 235 262 264 254 266 279 283 283 280 275 266 256 251 256 266 272 281
139 154 126 122 135 118 92 75 113 101 120 145 152 158 154 165 215 234 194 206 210 211 214 216 219 222 226 225 226 225 219 214 214 216 217 220 239 248 240 242 258 274 277 272 267 259 247 241 242 242 243 246 253 279
107 164 143 164 136 127 116 116 133 160 152 152 132 171 172 185 201 195 195 198 200 199 203 206 210 213 215 214 214 212 207 206 209 212 213 213 216 222 231 243 255 259 254 244 230 219 217 215 214 214 206 182 136 124
244 162 142 128 82 63 83 139 142 127 146 162 123 153 163 164 175 165 169 172 176 180 185 187 188 189 191 194 197 198 200 201 202 202 205 207 207 213 226 234 229 218 207 200 197 189 185 183 176 164 143 127 120 113
3 42 94 69 82 94 42 107 122 132 137 139 127 127 133 150 157 165 164 167 170 171 172 173 177 179 182 187 192 190 194 198 202 207 215 215 214 212 207 201 188 179 173 167 163 163 162 157 144 132 127 120 111 99
343 18 73 48 74 48 113 116 117 119 119 114 126 133 127 141 158 163 165 168 167 168 172 175 175 174 176 178 185 192 192 195 199 200 202 202 197 191 184 173 165 159 154 151 151 148 144 136 129 124 117 107 96 72
0 52 116 103 101 137 115 106 88 74 69 83 76 113 125 120 129 165 175 172 172 175 173 171 172 172 170 171 173 179 183 187 184 183 186 183 176 170 165 161 157 153 149 147 142 136 130 127 124 120 113 96 47 359
78 83 92 105 122 187 168 121 73 86 49 60 57 111 115 131 157 177 182 177 173 173 174 172 168 169 170 171 171 170 166 164 163 160 159 160 162 160 156 154 151 147 144 140 134 131 131 131 125 113 87 23 353 344